Location: Sternwarte Stuttgart
(48.7670°N, 9.1830°E)
Time: 15:28:31
(UTC+01:00)

Exosat Rocket - Pass Details

Date: 24 January 2019
Orbit: 762 x 2513 km, 72.3° (Epoch: 18 February)

Event Time Altitude Azimuth Distance (km) Brightness Sun altitude
Exits shadow 05:41:50 22° 341° (NNW) 1,706 5.1 -23.1°
Maximum altitude 05:45:18 73° 63° (ENE) 927 3.9 -22.5°
Drops below altitude 10° 05:51:50 10° 148° (SSE) 2,956 7.0 -21.4°
Sets 05:54:54 0° 151° (SSE) 4,145 7.8 -20.9°
